Regional Weather Roundup
Issued by NWS

Home | Current Version | Previous Version | Graphics & Text | Print | Product List | Glossary On
Versions: 1 2 3 4 5 6 7 8 9 10 11 12 13 14 15 16 17 18 19 20 21 22 23 24 25 26 27 28 29 30 31 32 33 34 35 36 37 38 39 40 41 42 43 44 45 46 47 48 49 50
000
ASUS43 KIND 242109
RWRIN

WEATHER ROUNDUP FOR INDIANA
NATIONAL WEATHER SERVICE INDIANAPOLIS IN
500 PM EDT WED AUG 24 2016

NOTE: "FAIR" INDICATES FEW OR NO CLOUDS BELOW 12,000 FEET WITH NO
SIGNIFICANT WEATHER AND/OR OBSTRUCTIONS TO VISIBILITY.

* - STATION DOES NOT REPORT WEATHER SUCH AS PRECIPITATION OR FOG.

+ - STATION NOT QUALITY CONTROLLED BY THE NATIONAL WEATHER SERVICE.
    USE DATA WITH CAUTION...ESPECIALLY DEWPOINT AND RELATIVE
    HUMIDITY OBSERVATIONS.

INZ001>003-010>013-019-020-242200-
NORTHWEST INDIANA

CITY           SKY/WX    TMP DP  RH WIND       PRES   REMARKS
GARY /AIRPORT/ MOSUNNY   81  75  83 SW5       29.92F
KNOX *+        CLOUDY    81  55  41 S9        29.95S
LA PORTE +     CLOUDY    82  80  95 S7        29.95F
MICHIGAN CITY+ CLOUDY    82  73  74 MISG      29.94S
MONTICELLO +   CLOUDY    82  72  72 S9G16     29.95F
RENSSELAER +   LGT RAIN  79  73  83 W6        29.95F
VALPARAISO     LGT RAIN  76  72  87 SW13G22   29.95S

$$

LMZ046-743>745-242200-
SOUTHERN LAKE MICHIGAN

STATION/POSITION TIME  TEMP    WIND        PRES    WAVE
                       AIR SEA DIR/SP/G            HT
                 (UTC) (F)     (DEG/KT/KT) (MB)    (FT)
BURNS HARBOR     2007          190/ 10/ 18   N/A
MICHIGAN CITY    2000   79     170/ 17/ 18   N/A
5NW MICH CITY    2000   78 74  220/ 12/ 17   N/A     2

$$

INZ004-005-014>016-021>024-242200-
NORTH CENTRAL INDIANA

CITY           SKY/WX    TMP DP  RH WIND       PRES   REMARKS
ELKHART        CLOUDY    77  72  83 S9        29.97S
GOSHEN         MOSUNNY   80  72  76 S20       29.97F
LOGANSPORT +   CLOUDY    81  72  74 S9        29.97F
PERU/GRISSOM   PTSUNNY   83  75  78 SW15G23   29.97F
ROCHESTER +    MOSUNNY   79  77  94 S8        29.97F
SOUTH BEND     CLOUDY    80  74  81 SW13      29.95F
WARSAW +       CLOUDY    77  77 100 S6        29.98F

$$

INZ006>009-017-018-025>027-242200-
NORTHEAST INDIANA

CITY           SKY/WX    TMP DP  RH WIND       PRES   REMARKS
ANGOLA *+      CLOUDY    77  72  83 SW17      30.00R
AUBURN +       RAIN      73  72  94 S5        30.01S
FORT WAYNE     LGT RAIN  77  74  90 S16       29.99F
HUNTINGTON +   CLOUDY   N/A N/A N/A S14       30.00F

$$

INZ028-029-035-036-043>045-051>053-242200-
WEST CENTRAL INDIANA

CITY           SKY/WX    TMP DP  RH WIND       PRES   REMARKS
CRAWFORDSVL +  CLOUDY    83  78  84 SW13      30.00F
GREENCASTLE +  PTSUNNY   79  77  94 W5        30.03S
LAFAYETTE      CLOUDY    85  76  74 SW17G25   29.93F
TERRE HAUTE    RAIN      84  75  74 SW10      30.01F

$$

INZ030>032-037>040-046>048-054>057-064-065-242200-
CENTRAL INDIANA

CITY           SKY/WX    TMP DP  RH WIND       PRES   REMARKS
COLUMBUS       MOSUNNY   88  75  66 S18G28    30.04F HX  97
INDIANAPOLIS   TSTM      80  75  84 N6        30.01R
-EAGLE CREEK   CLOUDY    77  74  90 NE7       30.01F THUNDER
MARION +       CLOUDY    77  75  93 SW6       30.02R
MT COMFORT *+  CLOUDY    72  68  88 SE14G25   30.05F VSB<1/4
SHELBYVILLE    TSTM      82  73  74 S8        30.01F
ZIONSVILLE +   CLOUDY    73  71  92 S5        30.03F

$$

INZ033-034-041-042-049-050-058-059-242200-
EAST CENTRAL INDIANA

CITY           SKY/WX    TMP DP  RH WIND       PRES   REMARKS
MUNCIE         CLOUDY    80  75  84 S8        30.02F

$$

INZ060-061-067>069-081>083-085>088-242200-
SOUTHWEST INDIANA

CITY           SKY/WX    TMP DP  RH WIND       PRES   REMARKS
EVANSVILLE     MOSUNNY   90  74  59 SW16      30.06F HX  99
HUNTINGBURG *+ CLOUDY    90  75  62 S15       30.07S HX 100
WASHINGTON +   CLOUDY    89  76  64 MISG      30.04S HX 100

$$

INZ062-063-066-070>080-084-089>092-242200-
SOUTH CENTRAL AND SOUTHEAST INDIANA

CITY           SKY/WX    TMP DP  RH WIND       PRES   REMARKS
BLOOMINGTON    TSTM      83  73  72 SW9       30.05S
MADISON *+     MOSUNNY   88  70  55 S13G18    30.10S

$$




USA.gov is the U.S. government's official web portal to all federal, state and local government web resources and services.